Location: *
(50.9167°S, 179.4000°W)
Time: 21:35:12
(UTC+00:00)

ATLAS 3B R/B - Pass Details

Date: 03 March 2024
Orbit: 949 x 1245 km, 63.8° (Epoch: 14 April)

Event Time Altitude Azimuth Distance (km) Brightness Sun altitude
Rises 14:07:15 0° 224° (SW) 3,706 5.7 -27.2°
Reaches altitude 10° 14:09:52 10° 223° (SW) 2,733 5.0 -27.0°
Maximum altitude 14:16:14 81° 134° (SE) 979 2.5 -26.4°
Drops below altitude 10° 14:22:31 10° 47° (NE) 2,699 4.7 -25.9°
Sets 14:25:04 0° 45° (NE) 3,656 5.4 -25.6°
